| time (UTC) | temp F | wind direction | speed knots | gust knots | rain 1hr in | rain 24hr in | rain mn in | humidity % | barometer mb |
| 20260507203732 | 47 | 315 | 0.0 | 0.9 | 0.00 | 0.00 | 0.00 | 10 | 1015.5 |
| 20260507203222 | 47 | 315 | 0.0 | 0.9 | 0.00 | 0.00 | 0.00 | 10 | 1015.4 |
| 20260507202712 | 47 | 315 | 0.0 | 0.9 | 0.00 | 0.00 | 0.00 | 10 | 1015.3 |
| 20260507202202 | 47 | 315 | 0.0 | 0.9 | 0.00 | 0.00 | 0.00 | 10 | 1015.2 |
| 20260507201651 | 47 | 315 | 0.0 | 0.9 | 0.00 | 0.00 | 0.00 | 10 | 1015.0 |
| 20260507201141 | 47 | 315 | 0.9 | 1.7 | 0.00 | 0.00 | 0.00 | 10 | 1015.0 |
| 20260507200631 | 47 | 315 | 0.0 | 0.9 | 0.00 | 0.00 | 0.00 | 10 | 1014.9 |
| 20260507200121 | 47 | 315 | 0.0 | 1.7 | 0.00 | 0.00 | 0.00 | 10 | 1014.8 |
| 20260507195610 | 47 | 315 | 0.0 | 0.0 | 0.00 | 0.00 | 0.00 | 10 | 1014.8 |
| 20260507195100 | 47 | 315 | 0.0 | 0.0 | 0.00 | 0.00 | 0.00 | 10 | 1014.8 |
| 20260507194550 | 48 | 315 | 0.0 | 0.0 | 0.00 | 0.00 | 0.00 | 10 | 1014.7 |
| 20260507194040 | 48 | 315 | 0.0 | 0.0 | 0.00 | 0.00 | 0.00 | 10 | 1014.6 |
| 20260507193530 | 48 | 315 | 0.0 | 0.9 | 0.00 | 0.00 | 0.00 | 10 | 1014.6 |
| 20260507193019 | 49 | 315 | 0.0 | 0.9 | 0.00 | 0.00 | 0.00 | 10 | 1014.6 |
| 20260507192509 | 49 | 315 | 0.0 | 0.0 | 0.00 | 0.00 | 0.00 | 10 | 1014.5 |
| 20260507191448 | 50 | 315 | 0.0 | 0.9 | 0.00 | 0.00 | 0.00 | 98 | 1014.5 |
| 20260507190938 | 50 | 315 | 0.9 | 1.7 | 0.00 | 0.00 | 0.00 | 96 | 1014.4 |
| 20260507190428 | 50 | 315 | 0.9 | 2.6 | 0.00 | 0.00 | 0.00 | 90 | 1014.4 |
| 20260507185407 | 51 | 315 | 0.0 | 0.9 | 0.00 | 0.00 | 0.00 | 81 | 1014.2 |
| 20260507184857 | 51 | 315 | 0.9 | 1.7 | 0.00 | 0.00 | 0.00 | 83 | 1014.1 |
| 20260507184346 | 51 | 315 | 0.9 | 0.9 | 0.00 | 0.00 | 0.00 | 75 | 1014.0 |
| 20260507183836 | 52 | 315 | 0.0 | 0.9 | 0.00 | 0.00 | 0.00 | 72 | 1013.9 |
| 20260507183325 | 52 | 315 | 0.9 | 1.7 | 0.00 | 0.00 | 0.00 | 70 | 1013.8 |
| 20260507182306 | 53 | 315 | 0.9 | 2.6 | 0.00 | 0.00 | 0.00 | 66 | 1013.6 |
| 20260507181243 | 55 | 315 | 0.0 | 0.9 | 0.00 | 0.00 | 0.00 | 60 | 1013.7 |
| 20260507180222 | 58 | 315 | 0.9 | 1.7 | 0.00 | 0.00 | 0.00 | 58 | 1013.3 |
| 20260507175711 | 59 | 315 | 0.9 | 1.7 | 0.00 | 0.00 | 0.00 | 56 | 1013.3 |
| 20260507175200 | 59 | 315 | 0.0 | 0.9 | 0.00 | 0.00 | 0.00 | 57 | 1013.3 |
| 20260507174649 | 59 | 315 | 0.9 | 1.7 | 0.00 | 0.00 | 0.00 | 56 | 1013.3 |
| 20260507174138 | 59 | 315 | 0.9 | 1.7 | 0.00 | 0.00 | 0.00 | 56 | 1013.3 |
| 20260507173628 | 60 | 315 | 0.9 | 1.7 | 0.00 | 0.00 | 0.00 | 54 | 1013.3 |
| 20260507173117 | 62 | 315 | 0.9 | 0.9 | 0.00 | 0.00 | 0.00 | 52 | 1013.3 |
| 20260507172054 | 62 | 315 | 0.9 | 2.6 | 0.00 | 0.00 | 0.00 | 55 | 1013.3 |
| 20260507171543 | 61 | 315 | 0.9 | 1.7 | 0.00 | 0.00 | 0.00 | 55 | 1013.2 |
| 20260507171032 | 61 | 315 | 0.9 | 2.6 | 0.00 | 0.00 | 0.00 | 57 | 1013.2 |
| 20260507170522 | 59 | 315 | 1.7 | 3.5 | 0.00 | 0.00 | 0.00 | 59 | 1013.2 |
| 20260507170011 | 58 | 315 | 0.9 | 2.6 | 0.00 | 0.00 | 0.00 | 60 | 1013.2 |
| 20260507165500 | 58 | 315 | 0.9 | 3.5 | 0.00 | 0.00 | 0.00 | 59 | 1013.1 |
| 20260507164949 | 59 | 315 | 1.7 | 2.6 | 0.00 | 0.00 | 0.00 | 59 | 1013.1 |
| 20260507164438 | 59 | 315 | 1.7 | 3.5 | 0.00 | 0.00 | 0.00 | 58 | 1013.0 |
| 20260507163927 | 60 | 315 | 1.7 | 4.3 | 0.00 | 0.00 | 0.00 | 58 | 1012.9 |
| 20260507163416 | 60 | 315 | 1.7 | 3.5 | 0.00 | 0.00 | 0.00 | 57 | 1012.9 |
| 20260507162906 | 61 | 315 | 0.9 | 2.6 | 0.00 | 0.00 | 0.00 | 57 | 1012.8 |
| 20260507162355 | 61 | 315 | 1.7 | 2.6 | 0.00 | 0.00 | 0.00 | 56 | 1012.9 |
| 20260507161844 | 61 | 315 | 0.9 | 1.7 | 0.00 | 0.00 | 0.00 | 56 | 1012.8 |
| 20260507161333 | 61 | 315 | 0.9 | 3.5 | 0.00 | 0.00 | 0.00 | 55 | 1012.8 |
| 20260507160822 | 61 | 315 | 0.9 | 2.6 | 0.00 | 0.00 | 0.00 | 54 | 1012.9 |
| 20260507160317 | 62 | 315 | 1.7 | 4.3 | 0.00 | 0.00 | 0.00 | 53 | 1012.9 |
| 20260507160311 | 62 | 315 | 1.7 | 4.3 | 0.00 | 0.00 | 0.00 | 53 | 1012.9 |
| 20260507155800 | 64 | 315 | 1.7 | 2.6 | 0.00 | 0.00 | 0.00 | 52 | 1012.9 |
| 20260507155248 | 64 | 315 | 0.9 | 2.6 | 0.00 | 0.00 | 0.00 | 52 | 1012.8 |
| 20260507154737 | 65 | 315 | 1.7 | 2.6 | 0.00 | 0.00 | 0.00 | 50 | 1012.8 |
| 20260507154226 | 66 | 315 | 1.7 | 5.2 | 0.00 | 0.00 | 0.00 | 49 | 1012.7 |
| 20260507153715 | 66 | 315 | 1.7 | 2.6 | 0.00 | 0.00 | 0.00 | 48 | 1012.8 |
| 20260507153204 | 66 | 315 | 2.6 | 4.3 | 0.00 | 0.00 | 0.00 | 47 | 1012.8 |
| 20260507152652 | 68 | 315 | 2.6 | 5.2 | 0.00 | 0.00 | 0.00 | 47 | 1012.7 |
| 20260507152141 | 69 | 315 | 2.6 | 4.3 | 0.00 | 0.00 | 0.00 | 47 | 1012.8 |
| 20260507151629 | 68 | 315 | 1.7 | 3.5 | 0.00 | 0.00 | 0.00 | 47 | 1012.7 |
| 20260507151118 | 67 | 315 | 1.7 | 3.5 | 0.00 | 0.00 | 0.00 | 47 | 1012.5 |
| 20260507150606 | 70 | 315 | 0.9 | 1.7 | 0.00 | 0.00 | 0.00 | 46 | 1012.6 |
| 20260507145543 | 68 | 315 | 2.6 | 4.3 | 0.00 | 0.00 | 0.00 | 50 | 1012.5 |
| 20260507145032 | 66 | 315 | 1.7 | 3.5 | 0.00 | 0.00 | 0.00 | 48 | 1012.5 |
| 20260507144520 | 70 | 315 | 1.7 | 3.5 | 0.00 | 0.00 | 0.00 | 46 | 1012.6 |
| 20260507144009 | 70 | 315 | 1.7 | 3.5 | 0.00 | 0.00 | 0.00 | 46 | 1012.6 |
| 20260507143457 | 69 | 315 | 1.7 | 2.6 | 0.00 | 0.00 | 0.00 | 48 | 1012.6 |
| 20260507142946 | 67 | 315 | 1.7 | 3.5 | 0.00 | 0.00 | 0.00 | 52 | 1012.6 |
| 20260507142435 | 67 | 315 | 1.7 | 3.5 | 0.00 | 0.00 | 0.00 | 52 | 1012.6 |
| 20260507141923 | 67 | 315 | 1.7 | 2.6 | 0.00 | 0.00 | 0.00 | 50 | 1012.6 |
| 20260507141412 | 70 | 315 | 1.7 | 3.5 | 0.00 | 0.00 | 0.00 | 47 | 1012.7 |
| 20260507135837 | 69 | 315 | 1.7 | 3.5 | 0.00 | 0.00 | 0.00 | 49 | 1012.7 |
| 20260507135326 | 68 | 315 | 1.7 | 3.5 | 0.00 | 0.00 | 0.00 | 50 | 1012.7 |
| 20260507134814 | 68 | 315 | 3.5 | 5.2 | 0.00 | 0.00 | 0.00 | 52 | 1012.6 |
| 20260507133752 | 64 | 315 | 1.7 | 3.5 | 0.00 | 0.00 | 0.00 | 58 | 1012.6 |
| 20260507132730 | 63 | 315 | 1.7 | 3.5 | 0.00 | 0.00 | 0.00 | 56 | 1012.6 |
| 20260507132218 | 64 | 315 | 2.6 | 3.5 | 0.00 | 0.00 | 0.00 | 53 | 1012.6 |
| 20260507131707 | 65 | 315 | 2.6 | 4.3 | 0.00 | 0.00 | 0.00 | 52 | 1012.7 |
| 20260507131156 | 67 | 315 | 3.5 | 4.3 | 0.00 | 0.00 | 0.00 | 53 | 1012.8 |
| 20260507130645 | 67 | 315 | 2.6 | 4.3 | 0.00 | 0.00 | 0.00 | 54 | 1012.7 |
| 20260507125622 | 64 | 315 | 2.6 | 3.5 | 0.00 | 0.00 | 0.00 | 58 | 1012.7 |
| 20260507125111 | 63 | 315 | 3.5 | 5.2 | 0.00 | 0.00 | 0.00 | 57 | 1012.8 |
| 20260507124600 | 63 | 315 | 2.6 | 3.5 | 0.00 | 0.00 | 0.00 | 56 | 1012.7 |
| 20260507124049 | 63 | 315 | 1.7 | 3.5 | 0.00 | 0.00 | 0.00 | 57 | 1012.6 |
| 20260507123537 | 65 | 315 | 3.5 | 4.3 | 0.00 | 0.00 | 0.00 | 55 | 1012.7 |
| 20260507123026 | 66 | 315 | 3.5 | 4.3 | 0.00 | 0.00 | 0.00 | 56 | 1012.6 |
| 20260507122515 | 65 | 315 | 3.5 | 5.2 | 0.00 | 0.00 | 0.00 | 56 | 1012.6 |
| 20260507121453 | 63 | 315 | 2.6 | 3.5 | 0.00 | 0.00 | 0.00 | 67 | 1012.7 |
| 20260507120941 | 62 | 315 | 2.6 | 5.2 | 0.00 | 0.00 | 0.00 | 65 | 1012.6 |
| 20260507120430 | 63 | 315 | 2.6 | 3.5 | 0.00 | 0.00 | 0.00 | 63 | 1012.7 |
| 20260507115919 | 63 | 315 | 2.6 | 4.3 | 0.00 | 0.00 | 0.00 | 67 | 1012.7 |
| 20260507115408 | 63 | 315 | 1.7 | 2.6 | 0.00 | 0.00 | 0.00 | 66 | 1012.7 |
| 20260507114857 | 63 | 315 | 2.6 | 3.5 | 0.00 | 0.00 | 0.00 | 68 | 1012.6 |
| 20260507114346 | 62 | 315 | 2.6 | 5.2 | 0.00 | 0.00 | 0.00 | 65 | 1012.6 |
| 20260507113835 | 63 | 315 | 3.5 | 4.3 | 0.00 | 0.00 | 0.00 | 67 | 1012.7 |
| 20260507112813 | 63 | 315 | 1.7 | 2.6 | 0.00 | 0.00 | 0.00 | 69 | 1012.8 |
| 20260507112306 | 63 | 315 | 2.6 | 4.3 | 0.00 | 0.00 | 0.00 | 68 | 1012.7 |
| 20260507111750 | 63 | 315 | 2.6 | 4.3 | 0.00 | 0.00 | 0.00 | 70 | 1012.7 |
| 20260507111239 | 62 | 315 | 2.6 | 3.5 | 0.00 | 0.00 | 0.00 | 68 | 1012.8 |
| 20260507110728 | 63 | 315 | 2.6 | 3.5 | 0.00 | 0.00 | 0.00 | 70 | 1012.7 |
| 20260507110217 | 63 | 315 | 2.6 | 4.3 | 0.00 | 0.00 | 0.00 | 68 | 1012.6 |
| 20260507105155 | 63 | 315 | 3.5 | 4.3 | 0.00 | 0.00 | 0.00 | 77 | 1012.6 |
| 20260507104644 | 62 | 315 | 2.6 | 3.5 | 0.00 | 0.00 | 0.00 | 81 | 1012.6 |
| 20260507104133 | 61 | 315 | 3.5 | 4.3 | 0.00 | 0.00 | 0.00 | 77 | 1012.7 |
| 20260507103622 | 62 | 315 | 3.5 | 4.3 | 0.00 | 0.00 | 0.00 | 78 | 1012.6 |
| 20260507103111 | 63 | 315 | 2.6 | 4.3 | 0.00 | 0.00 | 0.00 | 83 | 1012.6 |
| 20260507102559 | 62 | 315 | 2.6 | 4.3 | 0.00 | 0.00 | 0.00 | 88 | 1012.6 |
| 20260507102048 | 61 | 315 | 2.6 | 4.3 | 0.00 | 0.00 | 0.00 | 88 | 1012.6 |
| 20260507101027 | 59 | 315 | 1.7 | 3.5 | 0.00 | 0.00 | 0.00 | 89 | 1012.5 |
| 20260507100516 | 60 | 315 | 2.6 | 4.3 | 0.00 | 0.00 | 0.00 | 89 | 1012.5 |
| 20260507100005 | 60 | 315 | 2.6 | 5.2 | 0.00 | 0.00 | 0.00 | 95 | 1012.5 |
| 20260507095454 | 59 | 315 | 2.6 | 4.3 | 0.00 | 0.00 | 0.00 | 98 | 1012.5 |
| 20260507094943 | 59 | 315 | 3.5 | 4.3 | 0.00 | 0.00 | 0.00 | 97 | 1012.5 |
| 20260507094432 | 59 | 315 | 2.6 | 3.5 | 0.00 | 0.00 | 0.00 | 10 | 1012.3 |
| 20260507093921 | 58 | 315 | 2.6 | 4.3 | 0.00 | 0.00 | 0.00 | 10 | 1012.4 |
| 20260507093411 | 58 | 315 | 2.6 | 4.3 | 0.00 | 0.00 | 0.00 | 10 | 1012.4 |
| 20260507092900 | 57 | 315 | 3.5 | 4.3 | 0.00 | 0.00 | 0.00 | 10 | 1012.4 |
| 20260507092349 | 57 | 315 | 2.6 | 3.5 | 0.00 | 0.00 | 0.00 | 10 | 1012.3 |
| 20260507091838 | 56 | 315 | 2.6 | 3.5 | 0.00 | 0.00 | 0.00 | 10 | 1012.4 |
| 20260507091328 | 56 | 315 | 2.6 | 6.1 | 0.00 | 0.00 | 0.00 | 10 | 1012.3 |
| 20260507090817 | 56 | 315 | 1.7 | 2.6 | 0.00 | 0.00 | 0.00 | 10 | 1012.3 |
| 20260507085756 | 55 | 315 | 1.7 | 2.6 | 0.00 | 0.00 | 0.00 | 10 | 1012.0 |
| 20260507085245 | 55 | 315 | 2.6 | 3.5 | 0.00 | 0.00 | 0.00 | 10 | 1012.0 |
| 20260507084224 | 55 | 315 | 1.7 | 3.5 | 0.00 | 0.00 | 0.00 | 10 | 1011.8 |
| 20260507083714 | 55 | 315 | 3.5 | 4.3 | 0.00 | 0.00 | 0.00 | 10 | 1011.9 |
| 20260507082653 | 54 | 315 | 1.7 | 4.3 | 0.00 | 0.00 | 0.00 | 10 | 1011.8 |
| 20260507082142 | 54 | 315 | 1.7 | 3.5 | 0.00 | 0.00 | 0.00 | 10 | 1011.8 |
| 20260507081631 | 54 | 315 | 0.9 | 1.7 | 0.00 | 0.00 | 0.00 | 10 | 1011.7 |
| 20260507080610 | 54 | 315 | 1.7 | 3.5 | 0.00 | 0.00 | 0.00 | 10 | 1011.6 |
| 20260507080100 | 54 | 315 | 0.9 | 2.6 | 0.00 | 0.00 | 0.00 | 10 | 1011.6 |
| 20260507075549 | 54 | 315 | 1.7 | 3.5 | 0.00 | 0.00 | 0.00 | 10 | 1011.7 |
| 20260507075039 | 54 | 315 | 1.7 | 2.6 | 0.00 | 0.00 | 0.00 | 10 | 1011.6 |
| 20260507074528 | 54 | 315 | 1.7 | 2.6 | 0.00 | 0.00 | 0.00 | 10 | 1011.7 |
| 20260507074017 | 54 | 315 | 1.7 | 2.6 | 0.00 | 0.00 | 0.00 | 10 | 1011.6 |
| 20260507073507 | 53 | 315 | 1.7 | 4.3 | 0.00 | 0.00 | 0.00 | 10 | 1011.7 |
| 20260507072956 | 53 | 315 | 0.9 | 1.7 | 0.00 | 0.00 | 0.00 | 10 | 1011.5 |
| 20260507072446 | 53 | 315 | 2.6 | 3.5 | 0.00 | 0.00 | 0.00 | 10 | 1011.6 |
| 20260507071935 | 53 | 315 | 1.7 | 3.5 | 0.00 | 0.00 | 0.00 | 10 | 1011.6 |
| 20260507071425 | 52 | 315 | 1.7 | 3.5 | 0.00 | 0.00 | 0.00 | 10 | 1011.5 |
| 20260507070915 | 52 | 315 | 1.7 | 2.6 | 0.00 | 0.00 | 0.00 | 10 | 1011.5 |
| 20260507070404 | 52 | 315 | 1.7 | 2.6 | 0.00 | 0.00 | 0.00 | 10 | 1011.4 |
| 20260507065853 | 52 | 315 | 1.7 | 3.5 | 0.00 | 0.00 | 0.00 | 10 | 1011.3 |
| 20260507065343 | 52 | 315 | 1.7 | 3.5 | 0.00 | 0.00 | 0.00 | 10 | 1011.4 |
| 20260507064833 | 52 | 315 | 1.7 | 4.3 | 0.00 | 0.00 | 0.00 | 10 | 1011.3 |
| 20260507064322 | 52 | 315 | 1.7 | 5.2 | 0.00 | 0.00 | 0.00 | 10 | 1011.3 |
| 20260507063812 | 52 | 315 | 1.7 | 3.5 | 0.00 | 0.00 | 0.00 | 10 | 1011.3 |
| 20260507063301 | 52 | 315 | 1.7 | 3.5 | 0.00 | 0.00 | 0.00 | 10 | 1011.3 |
| 20260507062751 | 52 | 315 | 1.7 | 1.7 | 0.00 | 0.00 | 0.00 | 10 | 1011.1 |
| 20260507062240 | 51 | 315 | 1.7 | 2.6 | 0.00 | 0.00 | 0.00 | 10 | 1011.1 |
| 20260507061730 | 51 | 315 | 1.7 | 3.5 | 0.00 | 0.00 | 0.00 | 10 | 1010.9 |
| 20260507060709 | 51 | 315 | 1.7 | 3.5 | 0.00 | 0.00 | 0.00 | 10 | 1010.9 |
| 20260507060159 | 51 | 315 | 1.7 | 2.6 | 0.00 | 0.00 | 0.00 | 10 | 1010.8 |
| 20260507055648 | 51 | 315 | 1.7 | 3.5 | 0.00 | 0.00 | 0.00 | 10 | 1010.8 |
| 20260507055138 | 51 | 315 | 1.7 | 3.5 | 0.00 | 0.00 | 0.00 | 10 | 1010.8 |
| 20260507054628 | 51 | 315 | 2.6 | 4.3 | 0.00 | 0.00 | 0.00 | 10 | 1010.7 |
| 20260507054117 | 51 | 315 | 1.7 | 4.3 | 0.00 | 0.00 | 0.00 | 10 | 1010.6 |
| 20260507053056 | 51 | 315 | 1.7 | 2.6 | 0.00 | 0.00 | 0.00 | 10 | 1010.6 |
| 20260507052546 | 51 | 315 | 1.7 | 2.6 | 0.00 | 0.00 | 0.00 | 10 | 1010.4 |
| 20260507052036 | 50 | 315 | 1.7 | 3.5 | 0.00 | 0.00 | 0.00 | 10 | 1010.3 |
| 20260507051525 | 50 | 315 | 1.7 | 3.5 | 0.00 | 0.00 | 0.00 | 10 | 1010.4 |
| 20260507051015 | 50 | 315 | 1.7 | 2.6 | 0.00 | 0.00 | 0.00 | 10 | 1010.3 |
| 20260507050505 | 50 | 315 | 1.7 | 3.5 | 0.00 | 0.00 | 0.00 | 10 | 1010.3 |
| 20260507045954 | 50 | 315 | 1.7 | 2.6 | 0.00 | 0.00 | 0.00 | 10 | 1010.2 |
| 20260507045444 | 50 | 315 | 0.9 | 2.6 | 0.00 | 0.00 | 0.00 | 10 | 1010.1 |
| 20260507044934 | 50 | 315 | 1.7 | 2.6 | 0.00 | 0.00 | 0.00 | 10 | 1010.1 |
| 20260507044423 | 49 | 315 | 1.7 | 2.6 | 0.00 | 0.00 | 0.00 | 10 | 1010.0 |
| 20260507043403 | 49 | 315 | 0.9 | 2.6 | 0.00 | 0.00 | 0.00 | 10 | 1009.9 |
| 20260507042853 | 49 | 315 | 0.9 | 2.6 | 0.00 | 0.00 | 0.00 | 10 | 1009.9 |
| 20260507041832 | 49 | 315 | 1.7 | 2.6 | 0.00 | 0.00 | 0.00 | 10 | 1009.8 |
| 20260507040811 | 49 | 315 | 1.7 | 2.6 | 0.00 | 0.00 | 0.00 | 10 | 1009.6 |
| 20260507035751 | 48 | 315 | 1.7 | 3.5 | 0.00 | 0.00 | 0.00 | 10 | 1009.6 |
| 20260507035241 | 48 | 315 | 1.7 | 2.6 | 0.00 | 0.00 | 0.00 | 10 | 1009.4 |
| 20260507034730 | 48 | 315 | 1.7 | 2.6 | 0.00 | 0.00 | 0.00 | 10 | 1009.3 |
| 20260507034221 | 48 | 315 | 1.7 | 2.6 | 0.00 | 0.00 | 0.00 | 10 | 1009.4 |
| 20260507033710 | 48 | 315 | 1.7 | 3.5 | 0.00 | 0.00 | 0.00 | 10 | 1009.3 |
| 20260507033200 | 48 | 315 | 1.7 | 1.7 | 0.00 | 0.00 | 0.00 | 10 | 1009.2 |
| 20260507031629 | 48 | 315 | 0.9 | 2.6 | 0.00 | 0.00 | 0.00 | 10 | 1009.1 |
| 20260507031119 | 48 | 315 | 0.9 | 1.7 | 0.00 | 0.00 | 0.00 | 10 | 1009.0 |
| 20260507030609 | 47 | 315 | 0.9 | 1.7 | 0.00 | 0.00 | 0.00 | 10 | 1009.1 |
| 20260507030058 | 47 | 315 | 0.9 | 1.7 | 0.00 | 0.00 | 0.00 | 10 | 1009.0 |
| 20260507025548 | 47 | 315 | 0.9 | 0.9 | 0.00 | 0.00 | 0.00 | 10 | 1009.0 |
| 20260507025038 | 48 | 315 | 0.0 | 0.9 | 0.00 | 0.00 | 0.00 | 10 | 1008.9 |
| 20260507024528 | 48 | 315 | 0.9 | 0.9 | 0.00 | 0.00 | 0.00 | 10 | 1009.0 |
| 20260507024018 | 48 | 315 | 0.9 | 1.7 | 0.00 | 0.00 | 0.00 | 10 | 1009.1 |
| 20260507023507 | 48 | 315 | 0.9 | 1.7 | 0.00 | 0.00 | 0.00 | 10 | 1009.1 |
| 20260507022957 | 48 | 315 | 0.9 | 1.7 | 0.00 | 0.00 | 0.00 | 10 | 1009.0 |
| 20260507022447 | 48 | 315 | 0.9 | 1.7 | 0.00 | 0.00 | 0.00 | 10 | 1008.9 |
| 20260507021426 | 48 | 315 | 0.9 | 1.7 | 0.00 | 0.00 | 0.00 | 10 | 1008.8 |
| 20260507020406 | 48 | 315 | 0.9 | 1.7 | 0.00 | 0.00 | 0.00 | 10 | 1008.6 |
| 20260507015856 | 48 | 315 | 0.0 | 0.9 | 0.00 | 0.00 | 0.00 | 10 | 1008.5 |
| 20260507015346 | 48 | 315 | 0.9 | 1.7 | 0.00 | 0.00 | 0.00 | 10 | 1008.4 |
| 20260507014835 | 48 | 315 | 0.9 | 1.7 | 0.00 | 0.00 | 0.00 | 10 | 1008.4 |
| 20260507014325 | 48 | 315 | 0.9 | 1.7 | 0.00 | 0.00 | 0.00 | 10 | 1008.4 |
| 20260507013815 | 48 | 315 | 0.9 | 1.7 | 0.00 | 0.00 | 0.00 | 10 | 1008.3 |
| 20260507013305 | 48 | 315 | 1.7 | 2.6 | 0.00 | 0.00 | 0.00 | 10 | 1008.4 |
| 20260507012754 | 48 | 315 | 1.7 | 2.6 | 0.00 | 0.00 | 0.00 | 10 | 1008.4 |
| 20260507012244 | 48 | 315 | 0.9 | 1.7 | 0.00 | 0.00 | 0.00 | 10 | 1008.3 |
| 20260507011734 | 48 | 315 | 1.7 | 2.6 | 0.00 | 0.00 | 0.00 | 10 | 1008.3 |
| 20260507011224 | 48 | 315 | 1.7 | 3.5 | 0.00 | 0.00 | 0.00 | 10 | 1008.4 |
| 20260507010203 | 48 | 315 | 1.7 | 3.5 | 0.00 | 0.00 | 0.00 | 10 | 1008.2 |
| 20260507005653 | 48 | 315 | 1.7 | 2.6 | 0.00 | 0.00 | 0.00 | 10 | 1008.2 |
| 20260507005143 | 48 | 315 | 1.7 | 2.6 | 0.00 | 0.00 | 0.00 | 10 | 1008.1 |
| 20260507004632 | 48 | 315 | 1.7 | 2.6 | 0.00 | 0.00 | 0.00 | 10 | 1008.0 |
| 20260507004122 | 49 | 315 | 1.7 | 2.6 | 0.00 | 0.00 | 0.00 | 10 | 1008.0 |
| 20260507003612 | 49 | 315 | 0.9 | 2.6 | 0.00 | 0.00 | 0.00 | 10 | 1008.0 |
| 20260507003102 | 49 | 315 | 0.9 | 1.7 | 0.00 | 0.00 | 0.00 | 10 | 1008.0 |
| 20260507002551 | 49 | 315 | 0.9 | 1.7 | 0.00 | 0.00 | 0.00 | 10 | 1007.9 |
| 20260507001531 | 49 | 315 | 0.0 | 0.9 | 0.00 | 0.00 | 0.00 | 10 | 1007.7 |
| 20260507001020 | 49 | 315 | 0.0 | 0.0 | 0.00 | 0.00 | 0.00 | 10 | 1007.5 |
| 20260507000510 | 49 | 315 | 0.0 | 0.9 | 0.00 | 0.00 | 0.00 | 10 | 1007.4 |
| 20260507000000 | 49 | 315 | 0.0 | 0.0 | 0.00 | 0.00 | 0.00 | 10 | 1007.4 |
| 20260506235450 | 49 | 315 | 0.0 | 0.9 | 0.00 | 0.00 | 0.00 | 10 | 1007.3 |
| 20260506234939 | 49 | 315 | 0.0 | 0.9 | 0.00 | 0.00 | 0.00 | 10 | 1007.3 |
| 20260506234429 | 49 | 315 | 0.0 | 0.9 | 0.00 | 0.00 | 0.00 | 10 | 1007.2 |
| 20260506233919 | 50 | 315 | 0.0 | 0.9 | 0.00 | 0.00 | 0.00 | 10 | 1007.1 |
| 20260506233408 | 50 | 315 | 0.9 | 0.9 | 0.00 | 0.00 | 0.00 | 10 | 1007.1 |
| 20260506232905 | 0 | 315 | 0.0 | 0.9 | 0.00 | 0.00 | 0.00 | ||
| 20260506232858 | 50 | 315 | 0.0 | 0.9 | 0.00 | 0.00 | 0.00 | 10 | 1007.1 |
| 20260506232348 | 50 | 315 | 0.0 | 0.9 | 0.00 | 0.00 | 0.00 | 10 | 1007.1 |
| 20260506231838 | 50 | 315 | 0.9 | 1.7 | 0.00 | 0.00 | 0.00 | 10 | 1007.1 |
| 20260506231327 | 50 | 315 | 0.0 | 1.7 | 0.00 | 0.00 | 0.00 | 10 | 1007.1 |
| 20260506230306 | 50 | 315 | 0.9 | 2.6 | 0.00 | 0.00 | 0.00 | 10 | 1007.2 |
| 20260506225756 | 50 | 315 | 0.0 | 1.7 | 0.00 | 0.00 | 0.00 | 10 | 1007.0 |
| 20260506225246 | 50 | 315 | 0.9 | 2.6 | 0.00 | 0.00 | 0.00 | 10 | 1006.7 |
| 20260506224735 | 51 | 315 | 0.9 | 2.6 | 0.00 | 0.00 | 0.00 | 10 | 1006.7 |
| 20260506224225 | 51 | 315 | 1.7 | 3.5 | 0.00 | 0.00 | 0.00 | 10 | 1006.6 |
| 20260506223714 | 52 | 315 | 1.7 | 3.5 | 0.00 | 0.00 | 0.00 | 10 | 1006.7 |
| 20260506223204 | 53 | 315 | 0.9 | 2.6 | 0.00 | 0.00 | 0.00 | 10 | 1006.6 |
| 20260506222653 | 53 | 315 | 1.7 | 2.6 | 0.00 | 0.00 | 0.00 | 10 | 1006.7 |
| 20260506222143 | 54 | 315 | 1.7 | 4.3 | 0.00 | 0.00 | 0.00 | 10 | 1006.7 |
| 20260506221632 | 54 | 315 | 1.7 | 3.5 | 0.00 | 0.00 | 0.00 | 10 | 1006.6 |
| 20260506221122 | 54 | 315 | 3.5 | 4.3 | 0.00 | 0.00 | 0.00 | 10 | 1006.5 |
| 20260506220611 | 54 | 315 | 2.6 | 3.5 | 0.00 | 0.00 | 0.00 | 10 | 1006.2 |
| 20260506220101 | 55 | 315 | 2.6 | 3.5 | 0.00 | 0.00 | 0.00 | 10 | 1006.2 |
| 20260506215550 | 54 | 315 | 1.7 | 3.5 | 0.00 | 0.00 | 0.00 | 10 | 1006.1 |
| 20260506215039 | 54 | 315 | 0.9 | 2.6 | 0.00 | 0.00 | 0.00 | 10 | 1006.0 |
| 20260506214529 | 54 | 315 | 0.9 | 2.6 | 0.00 | 0.00 | 0.00 | 10 | 1006.0 |
| 20260506214018 | 54 | 315 | 0.0 | 0.9 | 0.00 | 0.00 | 0.00 | 10 | 1005.9 |
| 20260506213508 | 54 | 315 | 0.9 | 1.7 | 0.00 | 0.00 | 0.00 | 10 | 1005.8 |
| 20260506212957 | 54 | 315 | 0.9 | 1.7 | 0.00 | 0.00 | 0.00 | 10 | 1005.7 |
| 20260506212447 | 54 | 315 | 0.9 | 2.6 | 0.00 | 0.00 | 0.00 | 10 | 1005.8 |
| 20260506211425 | 54 | 315 | 0.0 | 0.9 | 0.00 | 0.00 | 0.00 | 10 | 1005.7 |
| 20260506210915 | 54 | 315 | 0.0 | 0.9 | 0.00 | 0.00 | 0.00 | 10 | 1005.7 |
| 20260506210404 | 53 | 315 | 0.0 | 0.9 | 0.00 | 0.00 | 0.00 | 10 | 1005.7 |
| 20260506205343 | 53 | 315 | 0.0 | 0.0 | 0.00 | 0.00 | 0.00 | 10 | 1005.7 |
| 20260506204833 | 53 | 315 | 0.0 | 0.9 | 0.00 | 0.00 | 0.00 | 10 | 1005.7 |